Weather History for Ketchikan, AK

Change the Weather History Date:

Saturday, March 30, 2013

  Actual Average Record
Temperature  
Mean Temperature 39 °F -  
Max Temperature 44 °F 47 °F 57 °F (1956)
Min Temperature 35 °F 35 °F 21 °F (1965)
Degree Days  
Heating Degree Days 26    
Moisture  
Dew Point 38 °F    
Average Humidity 95    
Maximum Humidity 100    
Minimum Humidity 86    
Precipitation  
Precipitation 0.07 in - - ()
Sea Level Pressure  
Sea Level Pressure 30.40 in    
Wind  
Wind Speed 3 mph (SSE)    
Max Wind Speed 8 mph    
Max Gust Speed -    
Visibility 10 miles    
Events Rain    
Averages and records for this station are not official NWS values.
T = Trace of Precipitation, MM = Missing Value Source: NWS Daily Summary

Daily Weather History Graph

Daily Weather History Graph

Search for Another Location

Airport:

Trip Planner

Search our weather history database for the weather conditions in past years. The results will help you decide how hot, cold, wet, or windy it might be!

Date:

Astronomy

Mar. 30, 2013 Rise Set
Actual Time 6:22 AM AKDT 7:21 PM AKDT
Civil Twilight 5:45 AM AKDT 7:58 PM AKDT
Nautical Twilight 4:59 AM AKDT 8:44 PM AKDT
Astronomical Twilight 4:10 AM AKDT 9:33 PM AKDT
Moon No Moon Rise 7:43 AM AKDT (3/30)
Length of Visible Light 14h 13m
Length of Day
12h 59m
Waning Gibbous, 85% of the Moon is Illuminated
Mar 30
Waning Gibbous
Apr 2
Last Quarter
Apr 10
New
Apr 18
First Quarter
Apr 25
Full

Hourly Weather History & Observations

Time (AKDT) Temp. Windchill Dew Point Humidity Pressure Visibility Wind Dir Wind Speed Gust Speed Precip Events Conditions
12:53 AM 37.0 °F - 33.1 °F 86% 30.39 in 10.0 mi Calm Calm - N/A   Mostly Cloudy
1:53 AM 37.9 °F - 35.1 °F 89% 30.39 in 10.0 mi Calm Calm - N/A   Overcast
2:53 AM 37.9 °F 35.5 °F 36.0 °F 93% 30.38 in 10.0 mi SE 3.5 mph - N/A   Mostly Cloudy
3:53 AM 37.9 °F 35.5 °F 36.0 °F 93% 30.38 in 10.0 mi SE 3.5 mph - N/A   Overcast
4:53 AM 37.9 °F 35.5 °F 36.0 °F 93% 30.39 in 10.0 mi SE 3.5 mph - N/A   Overcast
5:53 AM 39.0 °F 35.7 °F 37.0 °F 93% 30.40 in 10.0 mi SE 4.6 mph - N/A   Overcast
5:56 AM 39.2 °F 37.0 °F 37.4 °F 93% 30.39 in 10.0 mi SE 3.5 mph - 0.00 in Rain Light Rain
6:53 AM 39.0 °F - 37.9 °F 96% 30.40 in 10.0 mi Calm Calm - 0.00 in Rain Light Rain
7:53 AM 39.0 °F 34.0 °F 37.9 °F 96% 30.41 in 10.0 mi SSE 6.9 mph - 0.02 in Rain Light Rain
8:53 AM 39.0 °F 35.7 °F 37.9 °F 96% 30.41 in 10.0 mi SSE 4.6 mph - 0.02 in Rain Light Rain
9:53 AM 39.9 °F 35.8 °F 39.0 °F 97% 30.42 in 10.0 mi SSE 5.8 mph - 0.02 in Rain Light Rain
10:53 AM 39.9 °F 35.8 °F 39.0 °F 97% 30.42 in 10.0 mi SSE 5.8 mph - 0.01 in Rain Light Rain
11:53 AM 41.0 °F 35.8 °F 39.9 °F 96% 30.42 in 10.0 mi SE 8.1 mph - 0.00 in   Overcast
12:53 PM 41.0 °F 35.8 °F 39.9 °F 96% 30.42 in 10.0 mi SE 8.1 mph - N/A   Overcast
1:53 PM 42.1 °F 39.2 °F 41.0 °F 96% 30.42 in 10.0 mi SSE 4.6 mph - N/A   Overcast
2:53 PM 43.0 °F 38.8 °F 39.9 °F 89% 30.42 in 10.0 mi SE 6.9 mph - N/A   Overcast
3:53 PM 43.0 °F 38.2 °F 39.9 °F 89% 30.41 in 10.0 mi SE 8.1 mph - N/A   Overcast
4:53 PM 43.0 °F 40.3 °F 41.0 °F 93% 30.41 in 10.0 mi SSE 4.6 mph - N/A   Overcast
5:53 PM 43.0 °F 40.3 °F 39.9 °F 89% 30.40 in 10.0 mi SE 4.6 mph - N/A   Overcast
6:53 PM 43.0 °F 41.3 °F 39.9 °F 89% 30.39 in 10.0 mi SE 3.5 mph - N/A   Overcast
7:53 PM 41.0 °F - 39.9 °F 96% 30.40 in 10.0 mi Calm Calm - N/A   Overcast
8:53 PM 39.0 °F - 37.9 °F 96% 30.39 in 10.0 mi Calm Calm - N/A   Overcast
9:53 PM 35.1 °F 32.2 °F 35.1 °F 100% 30.39 in 10.0 mi WSW 3.5 mph - N/A   Mostly Cloudy
10:46 PM 35.6 °F 31.7 °F 35.6 °F 100% 30.37 in 10.0 mi WNW 4.6 mph - N/A   Scattered Clouds
10:53 PM 37.0 °F 33.3 °F 37.0 °F 100% 30.38 in 10.0 mi WNW 4.6 mph - N/A   Partly Cloudy
11:00 PM 37.4 °F 32.8 °F 37.4 °F 100% 30.37 in 10.0 mi WNW 5.8 mph - N/A   Scattered Clouds
11:09 PM 39.2 °F 35.0 °F 39.2 °F 100% 30.37 in 10.0 mi WNW 5.8 mph - N/A   Mostly Cloudy
11:53 PM 39.0 °F 34.8 °F 39.0 °F 100% 30.36 in 10.0 mi WNW 5.8 mph - N/A   Overcast